Weather History for Safford, AZ

Change the Weather History Date:

Sunday, March 10, 2013

  Actual Average Record
Temperature  
Mean Temperature 49 °F -  
Max Temperature 62 °F 71 °F 91 °F (1989)
Min Temperature 36 °F 39 °F 23 °F (1964)
Degree Days  
Heating Degree Days 16    
Moisture  
Dew Point 30 °F    
Average Humidity 51    
Maximum Humidity 89    
Minimum Humidity 24    
Precipitation  
Precipitation 0.00 in - - ()
Sea Level Pressure  
Sea Level Pressure 30.06 in    
Wind  
Wind Speed 7 mph (WNW)    
Max Wind Speed 15 mph    
Max Gust Speed 23 mph    
Visibility 10 miles    
Events      
Averages and records for this station are not official NWS values.
T = Trace of Precipitation, MM = Missing Value Source: NWS Daily Summary

Daily Weather History Graph

Daily Weather History Graph

Search for Another Location

Airport:

Trip Planner

Search our weather history database for the weather conditions in past years. The results will help you decide how hot, cold, wet, or windy it might be!

Date:

Astronomy

Mar. 10, 2013 Rise Set
Actual Time 6:34 AM MST 6:22 PM MST
Civil Twilight 6:10 AM MST 6:47 PM MST
Nautical Twilight 5:41 AM MST 7:16 PM MST
Astronomical Twilight 5:13 AM MST 7:44 PM MST
Moon 5:34 AM MST (3/10) 5:34 PM MST (3/10)
Length of Visible Light 12h 37m
Length of Day
11h 48m
Waning Crescent, 1% of the Moon is Illuminated
Mar 10
Waning Crescent
Mar 11
New
Mar 19
First Quarter
Mar 27
Full
Apr 2
Last Quarter

Hourly Weather History & Observations

Time (MST) Temp. Windchill Dew Point Humidity Pressure Visibility Wind Dir Wind Speed Gust Speed Precip Events Conditions
12:51 AM 42.1 °F 37.1 °F 33.1 °F 70% 30.03 in 10.0 mi NNW 8.1 mph - N/A   Overcast
1:51 AM 42.1 °F 38.4 °F 33.1 °F 70% 30.04 in 10.0 mi NNW 5.8 mph - N/A   Overcast
2:51 AM 41.0 °F 37.1 °F 34.0 °F 76% 30.04 in 10.0 mi WSW 5.8 mph - N/A   Overcast
3:51 AM 41.0 °F - 35.1 °F 79% 30.04 in 10.0 mi Calm Calm - N/A   Overcast
4:51 AM 41.0 °F 39.0 °F 36.0 °F 82% 30.05 in 10.0 mi WSW 3.5 mph - N/A   Overcast
5:51 AM 39.9 °F - 35.1 °F 83% 30.08 in 10.0 mi Calm Calm - N/A   Overcast
6:51 AM 36.0 °F - 33.1 °F 89% 30.10 in 10.0 mi Calm Calm - N/A   Clear
7:51 AM 41.0 °F 36.4 °F 36.0 °F 82% 30.12 in 10.0 mi WNW 6.9 mph - N/A   Clear
8:51 AM 45.0 °F 41.8 °F 36.0 °F 71% 30.12 in 10.0 mi WNW 5.8 mph - N/A   Clear
9:51 AM 48.9 °F - 33.1 °F 54% 30.12 in 10.0 mi WNW 5.8 mph - N/A   Clear
10:51 AM 53.1 °F - 32.0 °F 45% 30.10 in 10.0 mi NW 8.1 mph - N/A   Clear
11:51 AM 55.9 °F - 32.0 °F 40% 30.07 in 10.0 mi West 9.2 mph - N/A   Clear
12:51 PM 59.0 °F - 28.0 °F 31% 30.04 in 10.0 mi WNW 12.7 mph 19.6 mph N/A   Partly Cloudy
1:51 PM 61.0 °F - 24.1 °F 24% 30.02 in 10.0 mi West 11.5 mph - N/A   Scattered Clouds
2:51 PM 61.0 °F - 24.1 °F 24% 30.01 in 10.0 mi West 8.1 mph 18.4 mph N/A   Clear
3:51 PM 62.1 °F - 25.0 °F 24% 30.00 in 10.0 mi West 12.7 mph - N/A   Clear
4:51 PM 62.1 °F - 25.0 °F 24% 30.01 in 10.0 mi WNW 15.0 mph 23.0 mph N/A   Clear
5:51 PM 59.0 °F - 25.0 °F 27% 30.02 in 10.0 mi West 15.0 mph - N/A   Clear
6:51 PM 57.0 °F - 25.0 °F 29% 30.06 in 10.0 mi West 9.2 mph - N/A   Clear
7:51 PM 53.1 °F - 25.0 °F 34% 30.08 in 10.0 mi NW 6.9 mph - N/A   Clear
8:51 PM 50.0 °F - 26.1 °F 39% 30.09 in 10.0 mi NNW 8.1 mph - N/A   Clear
9:51 PM 50.0 °F - 26.1 °F 39% 30.09 in 10.0 mi NNW 6.9 mph - N/A   Clear
10:00 PM - - - N/A% - - North - - N/A   Sand
10:51 PM 46.9 °F - 26.1 °F 44% 30.11 in 10.0 mi North 5.8 mph - N/A   Clear
11:51 PM 43.0 °F 39.5 °F 24.1 °F 47% 30.11 in 10.0 mi East 5.8 mph - N/A   Clear